This demonstration page uses our WeatherBlox Daily Observations layout. Learn more.

Left ArrowRight Arrow

34.74481, -87.66753

Hourly Observations for June 20, 2018

Temp ( °F °C ) Dew Point ( °F °C ) Humidity (%) Winds ( mph kmh ) Pressure ( in mb ) Visibility ( mi km ) Precip ( " mm )
12:53 am 00:53 Partly Cloudy 75 23.9 72 22.2 90 90 Calm 29.98 1015 10 16 0.00 0.00
1:53 am 01:53 Mostly Clear 76 24.4 72 22.2 88 88 Calm 29.98 1015 10 16 0.00 0.00
2:53 am 02:53 Clear 74 23.3 71 21.7 91 91 Calm 29.96 1015 10 16 0.00 0.00
3:53 am 03:53 Clear 75 23.9 71 21.7 88 88 Calm 29.96 1015 10 16 0.00 0.00
4:53 am 04:53 Clear 74 23.3 71 21.7 91 91 Calm 29.96 1015 10 16 0.00 0.00
5:53 am 05:53 Mostly Sunny 75 23.9 72 22.2 90 90 Calm 29.97 1015 10 16 0.00 0.00
6:53 am 06:53 Sunny 76 24.4 72 22.2 88 88 Calm 29.98 1015 10 16 0.00 0.00
7:53 am 07:53 Partly Cloudy 77 25 72 22.2 85 85 Calm 29.99 1016 10 16 0.00 0.00
8:53 am 08:53 Cloudy 79 26.1 73 22.8 82 82 Calm 30.00 1016 10 16 0.00 0.00
9:53 am 09:53 Mostly Sunny 82 27.8 71 21.7 69 69 Calm 30.00 1016 10 16 0.00 0.00
10:53 am 10:53 Sunny 84 28.9 70 21.1 63 63 VRB 3 6 29.99 1016 10 16 0.00 0.00
11:53 am 11:53 Sunny 86 30 70 21.1 59 59 Calm 29.98 1015 10 16 0.00 0.00
12:53 pm 12:53 Sunny 87 30.6 70 21.1 57 57 WNW 6 9 29.98 1015 10 16 0.00 0.00
1:53 pm 13:53 Sunny 86 30 70 21.1 59 59 NW 3 6 29.97 1015 10 16 0.00 0.00
2:53 pm 14:53 Sunny 85 29.4 71 21.7 63 63 N 7 11 29.95 1014 10 16 0.00 0.00
3:53 pm 15:53 Sunny 88 31.1 70 21.1 55 55 NW 6 9 29.92 1013 10 16 0.00 0.00
4:53 pm 16:53 Sunny 86 30 70 21.1 59 59 E 3 6 29.91 1013 10 16 0.00 0.00
5:53 pm 17:53 Sunny 86 30 70 21.1 59 59 E 3 6 29.89 1012 10 16 0.00 0.00
6:53 pm 18:53 Sunny 83 28.3 73 22.8 72 72 Calm 29.89 1012 10 16 0.00 0.00
7:53 pm 19:53 Mostly Cloudy 79 26.1 74 23.3 85 85 WNW 8 13 29.91 1013 10 16 0.00 0.03
8:53 pm 20:53 Mostly Cloudy with Light Rain 78 25.6 75 23.9 90 90 W 3 6 29.92 1013 10 16 0.01 0.25
9:53 pm 21:53 Mostly Clear 76 24.4 73 22.8 91 91 Calm 29.93 1014 10 16 0.01 0.25
10:53 pm 22:53 Mostly Cloudy 76 24.4 73 22.8 91 91 Calm 29.92 1013 10 16 0.00 0.00
11:53 pm 23:53 Cloudy 75 23.9 73 22.8 94 94 Calm 29.92 1013 10 16 0.00 0.00

Powered by AerisWeather